User: anonymous   Login
Location: Unspecified
(0.0000°N, 0.0000°E)
Time: 22:34:12
(UTC+00:00)
Language:

Tiangong 2 - Orbit

View from above orbital plane
View from above orbital plane
View from above satellite
View from above satellite

Ground track
Ground track

The orbit data is extracted from the following two-line orbital elements,

1 41765U 16057A   17148.64062500 +.00002448 +00000-0 +32620-4 0  9991
2 41765 042.7823 111.2811 0009107 203.7079 131.8400 15.61154306039923
Epoch (UTC): 28 May 2017 15:22:30
Eccentricity: 0.0009107
inclination: 42.7823°
perigee height: 378 km
apogee height: 390 km
right ascension of ascending node: 111.2811°
argument of perigee: 203.7079°
revolutions per day: 15.61154306
mean anomaly at epoch: 131.8400°
orbit number at epoch: 3992

The dashed part of the orbit path shows where the satellite is in the earth's shadow,  

DLR